Location: Unspecified
(0.0000°N, 0.0000°E)
Time: 13:48:31
(UTC+00:00)

Transit 2A Rocket - All Passes

Search period start: 09 February 2016 00:00
Search period end: 19 February 2016 00:00
Orbit: 592 x 913 km, 66.7° (Epoch: 08 February)

Date Brightness Start Highest point End Pass type
(mag) Time Alt. Az. Time Alt. Az. Time Alt. Az.
09 Feb - 07:33:02 10° NNE 07:37:53 27° ENE 07:42:52 10° SE daylight
09 Feb - 09:15:28 10° NW 09:20:16 26° WSW 09:25:14 10° SSW daylight
09 Feb - 20:04:11 10° S 20:08:36 60° ESE 20:12:50 10° NNE visible
10 Feb - 06:53:00 10° NE 06:55:42 13° ENE 06:58:26 10° E daylight
10 Feb - 08:32:22 10° NW 08:38:02 50° WSW 08:43:57 10° S daylight
10 Feb - 19:22:43 10° SSE 19:26:24 25° ESE 19:29:56 10° NE visible
10 Feb - 21:06:50 10° W 21:08:38 12° WNW 21:10:26 10° NW visible
11 Feb - 07:49:58 10° NNW 07:55:50 84° ENE 08:01:58 10° SSE daylight
11 Feb - 18:43:10 10° SE 18:44:09 11° ESE 18:45:07 10° E visible
11 Feb - 20:22:40 10° SW 20:26:29 29° WNW 20:30:12 10° N visible
12 Feb - 07:08:09 10° N 07:13:40 43° ENE 07:19:23 10° SE daylight
12 Feb - 08:52:34 10° WNW 08:56:09 16° WSW 08:59:47 10° SSW daylight
12 Feb - 19:39:54 10° SSW 19:44:21 72° WNW 19:48:36 10° NNE visible
13 Feb - 06:27:05 10° NNE 06:31:30 22° ENE 06:36:02 10° ESE daylight
13 Feb - 08:08:41 10° NW 08:13:53 32° WSW 08:19:14 10° S daylight
13 Feb - 18:57:54 10° S 19:02:10 45° ESE 19:06:16 10° NE visible
14 Feb - 05:48:23 10° ENE 05:49:17 10° ENE 05:50:13 10° E visible
14 Feb - 07:25:49 10° NNW 07:31:39 62° WSW 07:37:41 10° S daylight
14 Feb - 18:16:45 10° SSE 18:19:57 19° ESE 18:23:02 10° ENE daylight
14 Feb - 19:59:30 10° WSW 20:02:12 16° WNW 20:04:52 10° NNW visible
15 Feb - 06:43:36 10° NNW 06:49:27 69° ENE 06:55:32 10° SSE daylight
15 Feb - 19:15:58 10° SW 19:20:04 37° WNW 19:24:01 10° N visible
16 Feb - 06:01:58 10° N 06:07:17 35° ENE 06:12:45 10° SE daylight
16 Feb - 07:45:28 10° WNW 07:49:44 20° WSW 07:54:03 10° SSW daylight
16 Feb - 18:33:28 10° SSW 18:37:54 86° ESE 18:42:10 10° NNE visible
17 Feb - 05:21:14 10° NNE 05:25:06 18° ENE 05:29:03 10° ESE visible
17 Feb - 07:01:59 10° NW 07:07:28 39° WSW 07:13:07 10° S daylight
17 Feb - 17:51:41 10° S 17:55:43 34° ESE 17:59:36 10° NE daylight
18 Feb - 06:19:20 10° NNW 06:25:15 76° WSW 06:31:22 10° SSE daylight
18 Feb - 17:10:59 10° SSE 17:13:29 15° ESE 17:15:55 10° ENE daylight
18 Feb - 18:52:29 10° WSW 18:55:46 21° WNW 18:59:00 10° NNW visible
